Regional Weather Roundup
Issued by NWS

Home | Current Version | Previous Version | Text Only | Print | Product List | Glossary On
Versions: 1 2 3 4 5 6 7 8 9 10 11 12 13 14 15 16 17 18 19 20 21 22 23 24 25 26 27
000
ASUS42 KTBW 240418
RWRFL
FLORIDA REGIONAL WEATHER ROUNDUP
NATIONAL WEATHER SERVICE TAMPA BAY RUSKIN FL
1200 AM EDT SAT JUN 24 2017

NOTE: "FAIR" INDICATES FEW OR NO CLOUDS BELOW 12,000 FEET WITH NO
SIGNIFICANT WEATHER AND/OR OBSTRUCTIONS TO VISIBILITY.

FLZ001>010-012>015-112-114-115-240500-
PANHANDLE FLORIDA

CITY           SKY/WX    TMP DP  RH WIND       PRES   REMARKS
PENSACOLA      CLOUDY    82  76  81 SW7       30.00R
PENSACOLA NAS  MOCLDY    81  76  84 S14       29.99R
MILTON NAS     MOCLDY    79  77  94 S5        30.01
CRESTVIEW      CLEAR     77  75  93 S5        30.01F
DUKE FIELD     CLEAR     77  75  93 S7        29.99F
VALPARAISO     PTCLDY    80  76  86 S8        30.00F
MARY ESTHER    DRIZZLE   80  75  83 S10       29.98
PANAMA CITY    MOCLDY    79  76  90 CALM      30.02S
TYNDALL AFB    PTCLDY    80  75  84 S7        30.04S
APALACHICOLA   CLEAR     81  79  94 SW5       30.05R

STATION/POSITION SKY/WX   TEMP    WIND        PRES    WAVE   SWELL
                          AIR SEA DIR/SP/G            HT/PER HT/PER
                          (F)     (DEG/KT/KT) (MB)    (FT/S) (FT/S)
30.1N   87.6W              81 81  180/ 12/ 16 1015.3S   3/ 6   2/ 6
29.2N   88.2W              81 82  170/ 12/ 14 1016.0
28.8N   86.0W              81 81  190/  6/  6 1017.2R   4/ 6   3/ 6
PANAMA CITY BEAC           81 84  180/ 10/ 12 1017.1S
TOWER C                    81     230/  7/  8 1018.3R
28.5N   84.5W              81 83  250/  2/  4 1017.6R   3/ 7   3/ 7

$$
FLZ011-016>038-118-127-128-134-139-239-240500-
NORTH FLORIDA

CITY           SKY/WX    TMP DP  RH WIND       PRES   REMARKS
MARIANNA       CLEAR     76  73  91 SW5       30.03S
TALLAHASSEE    CLEAR     78  76  93 S3        30.04S
PERRY          CLEAR     76  75  97 CALM      30.06S FOG
CROSS CITY     CLEAR     73  70  88 CALM      30.06S
LAKE CITY      FAIR      77  70  78 CALM      30.06R
GAINESVILLE    CLEAR     76  71  85 W3        30.06R
WILLISTON      CLEAR     79  75  89 CALM      30.06S
PALATKA        MOCLDY    81  77  89 S3        30.07R
MAYPORT NAS    CLEAR     80  76  87 S8        30.06R
JACKSONVILLE   CLEAR     78  75  90 S5        30.05R
JAX NAS        PTCLDY    82  75  79 S10       30.06R
FERNANDINA BEA FAIR      82  75  78 S7        30.04S
ST AUGUSTINE   CLEAR     80  76  87 S7        30.08R
PALM COAST     MOCLDY    79  75  86 S6        30.06R

STATION/POSITION SKY/WX   TEMP    WIND        PRES    WAVE   SWELL
                          AIR SEA DIR/SP/G            HT/PER HT/PER
                          (F)     (DEG/KT/KT) (MB)    (FT/S) (FT/S)
SHELL POINT      NOT AVBL
KEATON BEACH               82     250/  8/  9 1017.3R
CEDAR KEY                  82     300/  4/  5 1018.3R
FERNANDINA                 81 82  160/  8/ 10 1018.3R
30.7N   81.3W                 79                N/A     3/ 4
MAYPORT                    80 79  180/  6/ 10 1018.3R
31.4N   80.9W              81 82  180/ 19/ 23 1016.5R   4/ 5   2/ 9
ST AUGUSTINE               78 79  180/ 10/ 11 1018.2R

$$
FLZ040-043>046-052-053-057-058-063-144-240500-
INTERIOR CENTRAL FLORIDA

CITY           SKY/WX    TMP DP  RH WIND       PRES   REMARKS
OCALA          CLEAR     77  74  90 CALM      30.07R
THE VILLAGES     N/A     81  75  83 CALM      29.97R
LEESBURG       CLOUDY    81  78  91 CALM      30.07R
SANFORD        PTCLDY    81  73  76 S9        30.06R
ORLANDO EXEC   MOCLDY    81  74  79 SE6       30.07R
ORLANDO INTL   PTCLDY    78  74  87 SE7       30.07R
KISSIMMEE      PTCLDY    81  73  76 S7        30.07R
WINTER HAVEN   MOCLDY    82  73  74 S9        30.07R
LAKELAND       PTCLDY    79  73  83 N5        30.06S
BARTOW           N/A     79  73  83 SE9       30.06F
SEBRING        FAIR      83  74  75 SE8       30.07R
OKEECHOBEE     CLEAR     77  72  83 E3        30.08R

$$
FLZ041-047-054-059-064-141-147-240500-
EAST CENTRAL FLORIDA

CITY           SKY/WX    TMP DP  RH WIND       PRES   REMARKS
DAYTONA BEACH  PTCLDY    81  75  82 S7        30.07R
DELAND         PTCLDY    81  73  78 SE7       30.06R
JFK SPACE CTR  PTCLDY    80  75  84 S9        30.06R
CAPE CANAVERAL PTCLDY    80  75  87 S12       30.06R
PATRICK AFB    CLEAR     78  77  98 SE8       30.03F
MELBOURNE      CLEAR     81  75  82 S9        30.07R
VERO BEACH     CLEAR     80  75  84 SE9       30.08R
FT PIERCE      CLEAR     78  75  90 S3        30.08R
STUART         CLEAR     81  77  89 S3        30.09S

STATION/POSITION SKY/WX   TEMP    WIND        PRES    WAVE   SWELL
                          AIR SEA DIR/SP/G            HT/PER HT/PER
                          (F)     (DEG/KT/KT) (MB)    (FT/S) (FT/S)
28.5N   80.2W              82 81  160/ 10/ 12 1019.7
28.9N   78.5W              83 83  160/ 14/ 16 1018.9R   4/ 9   3/ 9
TRIDENT PIER               79 82  150/ 10/ 12 1019.8R
28.4N   80.5W                 78                N/A     2/ 9
27.5N   80.2W                 78                N/A     2/ 8

$$
FLZ050-056-061-142-242-148-248-149-249-151-251-155-255-
160-260-240500-
WEST CENTRAL FLORIDA

CITY           SKY/WX    TMP DP  RH WIND       PRES   REMARKS
CRYSTAL RIVER  FAIR      75  73  94 CALM      30.06R
INVERNESS      FAIR      75  75 100 CALM      30.07R
BROOKSVILLE    CLEAR     77  74  90 CALM      30.07R
CLEARWATER AIR FAIR      79  75  89 CALM      30.06R
ST PETE CLEARW PTCLDY    81  76  84 CALM      30.06R
TAMPA INTL     MOCLDY    82  74  76 CALM      30.07R
TAMPA EXEC     CLOUDY    81  75  83 CALM      30.07R
PLANT CITY     MOCLDY    82  77  83 W7        30.09R
MACDILL AFB    CLOUDY    78  76  94 CALM      30.06R
PETER O KNIGHT CLOUDY    84  77  79 CALM      30.07R
ST PETERSBURG  MOCLDY    84  74  71 CALM      30.05R
SARASOTA       MOCLDY    83  75  77 CALM      30.04R
VENICE         MOCLDY    82  77  83 S5        30.06R

STATION/POSITION SKY/WX   TEMP    WIND        PRES    WAVE   SWELL
                          AIR SEA DIR/SP/G            HT/PER HT/PER
                          (F)     (DEG/KT/KT) (MB)    (FT/S) (FT/S)
27.3N   84.2W                 82                N/A     3/ 7
CLEARWATER BEACH           83 86  280/  4/  5 1018.0R
MIDDLE TAMPA BAY           83      CALM  /  1 1018.2R
VENICE                     83 87  180/ 11/ 12 1017.7R

$$
FLZ066-069-070-075>078-162-262-165-265-240500-
SOUTHWEST FLORIDA AND KEYS

CITY           SKY/WX    TMP DP  RH WIND       PRES   REMARKS
PUNTA GORDA    LGT RAIN  79  76  90 E3        30.08R FOG
FT MYERS       CLOUDY    81  79  94 NE3       30.05R
SOUTHWEST INTL CLOUDY    80  76  87 NE3       30.06R
NAPLES         MOCLDY    81  79  94 E6        30.05R
MARCO ISLAND   CLEAR     79  75  89 E5        30.05S
IMMOKALEE      FAIR      77  77 100 N3        30.07R
MARATHON       PTCLDY    83  77  82 E9G20     30.02R
KEY WEST NAS   PTCLDY    82  77  84 E16       30.03R
KEY WEST INTL  CLEAR     83  76  79 E16       30.04R

STATION/POSITION SKY/WX   TEMP    WIND        PRES    WAVE   SWELL
                          AIR SEA DIR/SP/G            HT/PER HT/PER
                          (F)     (DEG/KT/KT) (MB)    (FT/S) (FT/S)
NAPLES                        87   70/  3/  4 1017.6R
DRY TORTUGAS               83     120/ 17/ 19 1016.5R
SAND KEY                   83     130/ 16/ 18 1017.3R
LONG KEY                   83     130/ 13       N/A
MOLASSES REEF              83 83  110/ 13/ 14 1017.4R

$$
FLZ067-068-071>074-168-172>174-240500-
SOUTHEAST FLORIDA

CITY           SKY/WX    TMP DP  RH WIND       PRES   REMARKS
W PALM BEACH   PTCLDY    83  74  74 SE10      30.08R
FT LAUDERDALE  PTCLDY    83  75  77 SE9       30.06R
POMPANO BEACH  PTCLDY    84  76  76 SE12      30.06R
PEMBROKE PINES CLEAR     83  73  72 E6        30.07R
OPA LOCKA      CLEAR     82  75  79 E5        30.06R
MIAMI          PTCLDY    83  74  74 E7        30.06R
WEST KENDALL   CLEAR     79  74  84 E7        30.05R
HOMESTEAD      PTCLDY    82  77  87 E8        30.05R

STATION/POSITION SKY/WX   TEMP    WIND        PRES    WAVE   SWELL
                          AIR SEA DIR/SP/G            HT/PER HT/PER
                          (F)     (DEG/KT/KT) (MB)    (FT/S) (FT/S)
PORT EVERGLADES            84     110/  3/  6 1017.9R
VIRGINIA KEY               83 86   90/  5/  6 1017.3R
LAKE WORTH                 82 83  120/ 13/ 14 1019.2R
FOWEY ROCKS                81 82  110/ 20/ 22 1018.2R
SETTLEMENT POINT           81     140/  5/  7 1018.9R

$$





USA.gov is the U.S. government's official web portal to all federal, state and local government web resources and services.